This demonstration page uses our WeatherBlox Daily Observations layout. Learn more.

39.51506, -84.39828

Hourly Observations for November 26, 2018

Temp ( °F °C ) Dew Point ( °F °C ) Humidity (%) Winds ( mph kmh ) Pressure ( in mb ) Visibility ( mi km ) Precip ( " mm )
12:15 am 00:15 Cloudy with Light Rain 50 10 45 7.4 84 84 SSE 6 9 29.5 999 7 11.26538 0.03 0.762
12:35 am 00:35 Cloudy with Rain 50 9.9 46 7.5 85 85 SSE 5 7 29.5 999 7 11.26538 0.08 2.032
12:55 am 00:55 Cloudy with Rain 49 9.5 46 7.7 89 89 S 8 13 29.5 999 7 11.26538 0.1 2.54
1:15 am 01:15 Cloudy with Light Rain 49 9.3 46 8 92 92 S 5 7 29.5 999 7 11.26538 0.01 0.254
1:35 am 01:35 Cloudy with Light Rain 49 9.4 46 8 91 91 S 6 9 29.47 998 10 16.0934 0.02 0.508
1:55 am 01:55 Cloudy 49 9.3 46 7.8 90 90 S 12 19 29.47 998 10 16.0934 0.02 0.508
2:15 am 02:15 Cloudy 49 9.5 46 7.9 90 90 S 9 15 29.47 998 10 16.0934 0 0
2:35 am 02:35 Cloudy 49 9.4 46 7.8 90 90 SSW 8 13 29.47 998 10 16.0934 0 0
2:55 am 02:55 Cloudy 49 9.5 46 7.9 90 90 SSW 12 19 29.44 997 10 16.0934 0 0
3:15 am 03:15 Cloudy with Light Rain 49 9.4 46 7.9 90 90 SSW 6 9 29.44 997 10 16.0934 0 0
3:35 am 03:35 Cloudy 49 9.4 46 7.8 90 90 SSW 7 11 29.44 997 10 16.0934 0 0
3:55 am 03:55 Cloudy 49 9.6 45 7.2 85 85 S 13 20 29.44 997 10 16.0934 0 0
4:15 am 04:15 Cloudy 49 9.4 44 6.6 83 83 SW 18 30 29.44 997 10 16.0934 0 0
4:35 am 04:35 Cloudy 48 8.9 41 4.8 76 76 SW 16 26 29.47 998 10 16.0934 0 0
4:55 am 04:55 Cloudy 47 8.3 39 3.8 74 74 SW 18 30 29.47 998 10 16.0934 0 0
5:15 am 05:15 Cloudy 46 7.9 39 4.1 77 77 WSW 16 26 29.47 998 10 16.0934 0 0
5:35 am 05:35 Cloudy 45 7.3 39 3.8 79 79 SW 16 26 29.47 998 10 16.0934 0 0
5:55 am 05:55 Cloudy 45 7.2 39 3.8 79 79 WSW 15 24 29.5 999 10 16.0934 0 0
6:15 am 06:15 Cloudy 44 6.6 38 3.3 80 80 WSW 22 35 29.5 999 10 16.0934 0 0
6:35 am 06:35 Cloudy with Light Drizzle 41 5.2 36 2.1 81 81 WSW 28 44 29.53 1000 10 16.0934 0 0
6:55 am 06:55 Cloudy 40 4.2 32 0.1 75 75 SW 22 35 29.53 1000 10 16.0934 0 0
7:15 am 07:15 Cloudy 39 3.7 31 -0.4 75 75 SW 25 41 29.56 1001 10 16.0934 0 0
7:35 am 07:35 Cloudy 38 3.4 31 -0.4 76 76 SW 18 30 29.56 1001 10 16.0934 0 0
7:55 am 07:55 Cloudy with Light Drizzle 37 2.7 31 -0.4 80 80 SW 23 37 29.56 1001 10 16.0934 0 0
8:15 am 08:15 Cloudy 37 2.6 31 -0.4 81 81 SW 22 35 29.56 1001 10 16.0934 0 0
8:35 am 08:35 Cloudy 37 2.7 31 -0.5 80 80 SSW 18 30 29.59 1002 10 16.0934 0 0
8:55 am 08:55 Cloudy 36 2.4 32 0.1 85 85 SSW 18 30 29.59 1002 10 16.0934 0 0
9:15 am 09:15 Cloudy with Light Drizzle 36 2 32 0.2 88 88 SW 16 26 29.62 1003 10 16.0934 0 0
9:35 am 09:35 Cloudy 36 2 33 0.5 90 90 SW 13 20 29.62 1003 10 16.0934 0 0
9:55 am 09:55 Cloudy 36 2.4 33 0.8 89 89 SW 15 24 29.62 1003 10 16.0934 0 0
10:15 am 10:15 Cloudy 36 2.2 33 0.6 89 89 SW 17 28 29.62 1003 10 16.0934 0 0
10:35 am 10:35 Cloudy 36 2.3 33 0.8 90 90 SSW 14 22 29.65 1004 10 16.0934 0 0
10:55 am 10:55 Cloudy 37 2.5 34 1.1 91 91 SSW 14 22 29.65 1004 10 16.0934 0 0
11:15 am 11:15 Cloudy with Mist and Fog 37 2.7 35 1.5 92 92 SW 10 17 29.65 1004 5 8.0467 0 0
11:35 am 11:35 Cloudy with Light Drizzle 37 2.8 35 1.9 94 94 SW 12 19 29.65 1004 2 3.21868 0 0
11:55 am 11:55 Cloudy with Mist and Fog 37 2.9 36 2.2 95 95 WSW 10 17 29.65 1004 2.5 4.02335 0 0
12:15 pm 12:15 Cloudy with Light Drizzle 38 3.3 36 2.4 94 94 SW 9 15 29.68 1005 7 11.26538 0 0
12:35 pm 12:35 Cloudy with Light Rain 38 3.5 36 2.4 93 93 W 14 22 29.68 1005 5 8.0467 0 0
12:55 pm 12:55 Cloudy with Light Rain 38 3.3 35 1.6 89 89 WNW 10 17 29.71 1006 10 16.0934 0.01 0.254
1:15 pm 13:15 Cloudy with Light Rain 37 2.9 33 0.7 86 86 WNW 16 26 29.71 1006 7 11.26538 0 0
1:35 pm 13:35 Cloudy with Light Rain 37 2.5 33 0.4 86 86 W 13 20 29.74 1007 10 16.0934 0 0
1:55 pm 13:55 Cloudy with Light Rain 36 2.3 32 -0.2 84 84 WNW 10 17 29.74 1007 10 16.0934 0 0
2:15 pm 14:15 Cloudy with Light Snow 35 1.9 32 -0.1 87 87 WNW 10 17 29.77 1008 7 11.26538 0 0
2:35 pm 14:35 Cloudy with Light Snow 34 1.1 32 0 92 92 W 9 15 29.8 1009 2.5 4.02335 0 0
2:55 pm 14:55 Cloudy with Light Snow 35 1.4 32 0.2 92 92 W 12 19 29.83 1010 5 8.0467 0 0
3:15 pm 15:15 Cloudy with Light Snow 35 1.4 31 -0.3 89 89 W 10 17 29.83 1010 5 8.0467 0 0
3:35 pm 15:35 Cloudy with Light Snow 34 1.2 31 -0.4 89 89 W 10 17 29.85 1011 5 8.0467 0 0
3:55 pm 15:55 Cloudy with Light Snow 34 1.1 31 -0.5 89 89 W 13 20 29.85 1011 7 11.26538 0 0
4:15 pm 16:15 Cloudy with Light Snow 34 1.1 31 -0.7 88 88 W 10 17 29.85 1011 7 11.26538 0 0
4:35 pm 16:35 Cloudy with Light Snow 34 1.1 30 -0.9 87 87 WNW 13 20 29.88 1012 10 16.0934 0 0
4:55 pm 16:55 Cloudy with Light Snow 33 0.7 31 -0.8 90 90 WNW 9 15 29.88 1012 2 3.21868 0 0
5:15 pm 17:15 Cloudy with Light Snow 33 0.8 31 -0.8 89 89 WNW 12 19 29.88 1012 2.5 4.02335 0 0
5:35 pm 17:35 Cloudy with Light Snow 33 0.8 31 -0.8 89 89 WNW 12 19 29.88 1012 3 4.82802 0 0
5:55 pm 17:55 Cloudy with Light Snow 33 0.7 31 -0.7 90 90 WNW 8 13 29.88 1012 3 4.82802 0 0
6:15 pm 18:15 Cloudy with Light Snow 33 0.6 31 -0.4 93 93 WSW 7 11 29.88 1012 4 6.43736 0 0
6:35 pm 18:35 Cloudy with Light Snow 33 0.3 30 -1 91 91 W 13 20 29.91 1013 3 4.82802 0 0
6:55 pm 18:55 Cloudy with Light Snow 33 0.3 29 -1.4 89 89 W 10 17 29.91 1013 7 11.26538 0 0
7:15 pm 19:15 Cloudy with Light Snow 32 0.1 30 -1.3 90 90 W 10 17 29.91 1013 3.5 5.63269 0 0
7:35 pm 19:35 Cloudy with Light Snow 32 -0.1 29 -1.4 91 91 W 10 17 29.91 1013 2 3.21868 0 0
7:55 pm 19:55 Cloudy with Light Snow 31 -0.3 29 -1.4 92 92 W 10 17 29.91 1013 1.75 2.816345 0 0
8:15 pm 20:15 Cloudy with Light Snow 32 -0.2 30 -1.3 92 92 W 8 13 29.91 1013 2.5 4.02335 0 0
8:35 pm 20:35 Cloudy with Light Snow 32 -0.2 28 -2 88 88 W 15 24 29.94 1014 7 11.26538 0 0
8:55 pm 20:55 Cloudy with Light Snow 31 -0.5 29 -1.6 92 92 W 9 15 29.94 1014 2 3.21868 0 0
9:10 pm 21:10 Cloudy with Light Snow 31 -0.5 28 -2 90 90 W 13 20 29.94 1014 3.5 5.63269 0 0
9:35 pm 21:35 Cloudy with Light Snow 31 -0.8 28 -2.2 90 90 W 12 19 29.97 1015 2.5 4.02335 0 0
9:55 pm 21:55 Cloudy with Light Snow 31 -0.6 27 -2.8 85 85 WNW 13 20 29.97 1015 10 16.0934 0 0
10:15 pm 22:15 Cloudy 31 -0.6 26 -3.1 83 83 W 12 19 29.97 1015 10 16.0934 0 0
10:35 pm 22:35 Cloudy 31 -0.7 27 -2.9 85 85 WNW 10 17 29.97 1015 10 16.0934 0 0
10:55 pm 22:55 Cloudy 30 -1 27 -3 86 86 W 14 22 29.97 1015 7 11.26538 0 0
11:15 pm 23:15 Cloudy 30 -1.1 25 -3.7 83 83 WNW 14 22 29.97 1015 10 16.0934 0 0
11:35 pm 23:35 Cloudy 30 -1.2 26 -3.6 84 84 WNW 12 19 29.97 1015 10 16.0934 0 0
11:55 pm 23:55 Cloudy 30 -1.3 25 -4 82 82 WNW 7 11 29.97 1015 10 16.0934 0 0

Powered by AerisWeather